Hourly Data Report for September 21, 2017

All times are specified in Local Standard Time (LST). Add 1 hour to adjust for Daylight Saving Time where and when it is observed.

TORONTO INTL A
ONTARIO

43°40'36.000" N
79°37'50.000" W
173.40 m
6158731
71624
YYZ

Download Data

Hourly Data (September 2017)
Hourly Data Report for September 21, 2017
Temp Definition
°C
Dew Point Temp Definition
°C
Rel Hum Definition
%
Wind Dir Definition
10's deg

Wind Spd Definition
km/h
Visibility Definition
km
Stn Press Definition
kPa
Hmdx Definition


Wind Chill Definition


Weather Definition


TIME
00:00 Legend Double Dagger 19.6 15.5 77 13 6 24.1 99.69     LegendNANA
01:00 Legend Double Dagger 19.5 16.1 80 31 6 24.1 99.77     Clear
02:00 Legend Double Dagger 17.6 14.8 83 33 6 24.1 99.81     LegendNANA
03:00 Legend Double Dagger 18.1 15.4 84 9 5 24.1 99.85     LegendNANA
04:00 Legend Double Dagger 17.6 15.1 85 36 5 24.1 99.86     Clear
05:00 Legend Double Dagger 17.8 15.2 85 3 6 19.3 99.85     LegendNANA
06:00 Legend Double Dagger 17.3 14.7 85 5 5 24.1 99.90     LegendNANA
07:00 Legend Double Dagger 18.1 15.5 85 8 5 24.1 99.88     Clear
08:00 Legend Double Dagger 20.9 16.6 76 29 7 24.1 99.93 26   LegendNANA
09:00 Legend Double Dagger 23.4 17.8 70 15 6 24.1 99.96 29   LegendNANA
10:00 Legend Double Dagger 24.8 17.8 64 15 10 24.1 99.95 31   Clear
11:00 Legend Double Dagger 25.3 16.6 58 14 16 24.1 99.95 30   LegendNANA
12:00 Legend Double Dagger 25.7 16.6 57 11 18 24.1 99.91 31   LegendNANA
13:00 Legend Double Dagger 25.9 17.0 57 14 17 24.1 99.91 31   Clear
14:00 Legend Double Dagger 26.5 16.5 54 14 12 24.1 99.91 31   LegendNANA
15:00 Legend Double Dagger 26.9 16.1 51 13 10 24.1 99.87 32   LegendNANA
16:00 Legend Double Dagger 26.5 15.2 49 10 13 24.1 99.86 31   Clear
17:00 Legend Double Dagger 25.8 15.2 51 12 11 24.1 99.87 30   LegendNANA
18:00 Legend Double Dagger 24.7 15.9 58 14 9 24.1 99.85 29   LegendNANA
19:00 Legend Double Dagger 23.1 15.8 63 9 8 24.1 99.89 28   Clear
20:00 Legend Double Dagger 22.3 15.9 67 10 5 24.1 99.92 27   LegendNANA
21:00 Legend Double Dagger 21.9 15.9 69 18 6 24.1 99.96 26   LegendNANA
22:00 Legend Double Dagger 21.4 16.5 73 14 6 24.1 99.96 26   Clear
23:00 Legend Double Dagger 20.8 16.4 76 35 3 24.1 99.95 26   LegendNANA

Notes on Data Quality.

Legend

  • E = Estimated
  • M = Missing
  • NA = Not Available
  • ‡ = Partner data that is not subject to review by the National Climate Archives
Date modified: